| time (UTC) | temp F | wind direction | speed MPH | gust MPH | rain 1hr in | rain 24hr in | rain mn in | humidity % | barometer mb |
| 20260503230018 | 61 | 351 | 3.0 | 3.0 | 0.00 | 0.00 | 0.00 | 29 | 1013.5 |
| 20260503225514 | 61 | 93 | 1.0 | 2.0 | 0.00 | 0.00 | 0.00 | 30 | 1013.4 |
| 20260503225009 | 61 | 338 | 4.0 | 5.0 | 0.00 | 0.00 | 0.00 | 29 | 1013.1 |
| 20260503224507 | 61 | 340 | 4.0 | 5.0 | 0.00 | 0.00 | 0.00 | 28 | 1013.4 |
| 20260503224005 | 61 | 342 | 3.0 | 5.0 | 0.00 | 0.00 | 0.00 | 27 | 1013.4 |
| 20260503223503 | 61 | 336 | 5.0 | 6.0 | 0.00 | 0.00 | 0.00 | 27 | 1013.5 |
| 20260503222958 | 62 | 154 | 1.0 | 1.0 | 0.00 | 0.00 | 0.00 | 31 | 1013.2 |
| 20260503222457 | 62 | 312 | 2.0 | 2.0 | 0.00 | 0.00 | 0.00 | 28 | 1013.2 |
| 20260503221955 | 63 | 109 | 3.0 | 3.0 | 0.00 | 0.00 | 0.00 | 26 | 1013.1 |
| 20260503221453 | 63 | 131 | 1.0 | 1.0 | 0.00 | 0.00 | 0.00 | 26 | 1013.3 |
| 20260503220949 | 63 | 163 | 1.0 | 2.0 | 0.00 | 0.00 | 0.00 | 24 | 1013.4 |
| 20260503220445 | 65 | 217 | 3.0 | 3.0 | 0.00 | 0.00 | 0.00 | 26 | 1013.4 |
| 20260503215942 | 64 | 229 | 1.0 | 2.0 | 0.00 | 0.00 | 0.00 | 29 | 1013.5 |
| 20260503215439 | 66 | 156 | 0.0 | 0.0 | 0.00 | 0.00 | 0.00 | 24 | 1013.3 |
| 20260503214937 | 64 | 211 | 1.0 | 1.0 | 0.00 | 0.00 | 0.00 | 25 | 1013.4 |
| 20260503214434 | 64 | 196 | 6.0 | 7.0 | 0.00 | 0.00 | 0.00 | 24 | 1013.4 |
| 20260503213931 | 63 | 110 | 1.0 | 1.0 | 0.00 | 0.00 | 0.00 | 25 | 1013.5 |
| 20260503213430 | 63 | 331 | 1.0 | 2.0 | 0.00 | 0.00 | 0.00 | 26 | 1013.5 |
| 20260503212925 | 63 | 172 | 2.0 | 2.0 | 0.00 | 0.00 | 0.00 | 25 | 1013.6 |
| 20260503212423 | 64 | 187 | 5.0 | 7.0 | 0.00 | 0.00 | 0.00 | 25 | 1013.5 |
| 20260503211920 | 64 | 163 | 1.0 | 1.0 | 0.00 | 0.00 | 0.00 | 24 | 1013.5 |
| 20260503211417 | 63 | 195 | 2.0 | 2.0 | 0.00 | 0.00 | 0.00 | 26 | 1013.8 |
| 20260503210912 | 62 | 332 | 5.0 | 7.0 | 0.00 | 0.00 | 0.00 | 30 | 1013.7 |
| 20260503210410 | 61 | 335 | 5.0 | 7.0 | 0.00 | 0.00 | 0.00 | 30 | 1013.6 |
| 20260503205904 | 63 | 302 | 5.0 | 6.0 | 0.00 | 0.00 | 0.00 | 28 | 1013.7 |
| 20260503205402 | 62 | 17 | 1.0 | 2.0 | 0.00 | 0.00 | 0.00 | 26 | 1013.7 |
| 20260503204858 | 62 | 307 | 3.0 | 5.0 | 0.00 | 0.00 | 0.00 | 28 | 1013.7 |
| 20260503204355 | 62 | 166 | 1.0 | 2.0 | 0.00 | 0.00 | 0.00 | 27 | 1013.7 |
| 20260503203852 | 62 | 197 | 7.0 | 9.0 | 0.00 | 0.00 | 0.00 | 28 | 1013.9 |
| 20260503203350 | 61 | 203 | 7.0 | 9.0 | 0.00 | 0.00 | 0.00 | 30 | 1013.9 |
| 20260503202846 | 61 | 343 | 2.0 | 2.0 | 0.00 | 0.00 | 0.00 | 30 | 1013.9 |
| 20260503202345 | 62 | 164 | 3.0 | 3.0 | 0.00 | 0.00 | 0.00 | 27 | 1014.1 |
| 20260503201843 | 62 | 337 | 4.0 | 6.0 | 0.00 | 0.00 | 0.00 | 29 | 1014.1 |
| 20260503201339 | 62 | 130 | 1.0 | 2.0 | 0.00 | 0.00 | 0.00 | 31 | 1014.3 |
| 20260503200837 | 62 | 244 | 3.0 | 3.0 | 0.00 | 0.00 | 0.00 | 33 | 1014.2 |
| 20260503200332 | 62 | 179 | 4.0 | 5.0 | 0.00 | 0.00 | 0.00 | 28 | 1014.4 |
| 20260503195830 | 62 | 111 | 2.0 | 2.0 | 0.00 | 0.00 | 0.00 | 28 | 1014.4 |
| 20260503195326 | 60 | 291 | 2.0 | 3.0 | 0.00 | 0.00 | 0.00 | 30 | 1014.5 |
| 20260503194824 | 60 | 328 | 3.0 | 3.0 | 0.00 | 0.00 | 0.00 | 31 | 1014.4 |
| 20260503194319 | 60 | 199 | 4.0 | 6.0 | 0.00 | 0.00 | 0.00 | 30 | 1014.7 |
| 20260503193816 | 59 | 246 | 4.0 | 6.0 | 0.00 | 0.00 | 0.00 | 30 | 1014.6 |
| 20260503193312 | 59 | 341 | 3.0 | 3.0 | 0.00 | 0.00 | 0.00 | 34 | 1014.7 |
| 20260503192808 | 59 | 333 | 5.0 | 7.0 | 0.00 | 0.00 | 0.00 | 32 | 1014.7 |
| 20260503192305 | 59 | 165 | 5.0 | 10.0 | 0.00 | 0.00 | 0.00 | 32 | 1014.9 |
| 20260503191800 | 58 | 323 | 5.0 | 6.0 | 0.00 | 0.00 | 0.00 | 33 | 1014.9 |
| 20260503191257 | 58 | 340 | 8.0 | 9.0 | 0.00 | 0.00 | 0.00 | 39 | 1014.8 |
| 20260503190754 | 59 | 328 | 8.0 | 10.0 | 0.00 | 0.00 | 0.00 | 32 | 1015.2 |
| 20260503190250 | 59 | 314 | 5.0 | 7.0 | 0.00 | 0.00 | 0.00 | 37 | 1015.0 |
| 20260503185748 | 59 | 323 | 4.0 | 6.0 | 0.00 | 0.00 | 0.00 | 35 | 1015.5 |
| 20260503185243 | 58 | 191 | 7.0 | 8.0 | 0.00 | 0.00 | 0.00 | 31 | 1015.5 |
| 20260503184738 | 58 | 326 | 7.0 | 9.0 | 0.00 | 0.00 | 0.00 | 36 | 1015.3 |
| 20260503184235 | 59 | 294 | 6.0 | 7.0 | 0.00 | 0.00 | 0.00 | 34 | 1015.6 |
| 20260503183731 | 58 | 348 | 6.0 | 8.0 | 0.00 | 0.00 | 0.00 | 35 | 1015.5 |
| 20260503183229 | 59 | 355 | 6.0 | 8.0 | 0.00 | 0.00 | 0.00 | 33 | 1015.7 |
| 20260503182726 | 58 | 159 | 0.0 | 0.0 | 0.00 | 0.00 | 0.00 | 34 | 1015.7 |
| 20260503182225 | 57 | 225 | 4.0 | 6.0 | 0.00 | 0.00 | 0.00 | 36 | 1015.7 |
| 20260503181721 | 57 | 38 | 4.0 | 6.0 | 0.00 | 0.00 | 0.00 | 38 | 1015.7 |
| 20260503181218 | 57 | 356 | 5.0 | 7.0 | 0.00 | 0.00 | 0.00 | 35 | 1015.8 |
| 20260503180714 | 58 | 93 | 0.0 | 1.0 | 0.00 | 0.00 | 0.00 | 36 | 1015.9 |
| 20260503180213 | 58 | 192 | 4.0 | 6.0 | 0.00 | 0.00 | 0.00 | 33 | 1015.6 |
| 20260503175710 | 56 | 224 | 6.0 | 7.0 | 0.00 | 0.00 | 0.00 | 40 | 1016.0 |
| 20260503175208 | 57 | 63 | 5.0 | 9.0 | 0.00 | 0.00 | 0.00 | 35 | 1016.0 |
| 20260503174703 | 57 | 187 | 2.0 | 3.0 | 0.00 | 0.00 | 0.00 | 34 | 1015.9 |
| 20260503174201 | 57 | 305 | 4.0 | 6.0 | 0.00 | 0.00 | 0.00 | 39 | 1015.8 |
| 20260503173656 | 56 | 265 | 6.0 | 8.0 | 0.00 | 0.00 | 0.00 | 39 | 1015.9 |
| 20260503173152 | 56 | 320 | 6.0 | 8.0 | 0.00 | 0.00 | 0.00 | 35 | 1016.1 |
| 20260503172649 | 55 | 142 | 1.0 | 1.0 | 0.00 | 0.00 | 0.00 | 37 | 1016.1 |
| 20260503172146 | 55 | 331 | 5.0 | 6.0 | 0.00 | 0.00 | 0.00 | 39 | 1016.0 |
| 20260503171642 | 55 | 232 | 6.0 | 7.0 | 0.00 | 0.00 | 0.00 | 38 | 1016.2 |
| 20260503171140 | 54 | 321 | 7.0 | 8.0 | 0.00 | 0.00 | 0.00 | 37 | 1016.2 |
| 20260503170637 | 54 | 348 | 3.0 | 5.0 | 0.00 | 0.00 | 0.00 | 37 | 1016.5 |
| 20260503170134 | 55 | 349 | 12.0 | 14.0 | 0.00 | 0.00 | 0.00 | 37 | 1016.3 |
| 20260503150525 | 50 | 341 | 7.0 | 8.0 | 0.00 | 0.00 | 0.00 | 45 | 1017.5 |
| 20260503131418 | 45 | 340 | 6.0 | 8.0 | 0.00 | 0.00 | 0.00 | 53 | 1017.5 |
| 20260503130915 | 45 | 346 | 9.0 | 10.0 | 0.00 | 0.00 | 0.00 | 53 | 1017.3 |
| 20260503130413 | 45 | 310 | 5.0 | 7.0 | 0.00 | 0.00 | 0.00 | 54 | 1017.3 |
| 20260503110817 | 40 | 313 | 2.0 | 2.0 | 0.00 | 0.00 | 0.00 | 68 | 1016.6 |
| 20260503110314 | 39 | 20 | 2.0 | 2.0 | 0.00 | 0.00 | 0.00 | 68 | 1016.5 |
| 20260503100240 | 41 | 351 | 4.0 | 6.0 | 0.00 | 0.00 | 0.00 | 65 | 1015.3 |
| 20260503090159 | 41 | 336 | 2.0 | 3.0 | 0.00 | 0.00 | 0.00 | 66 | 1015.0 |
| 20260503081636 | 42 | 358 | 4.0 | 5.0 | 0.00 | 0.00 | 0.00 | 67 | 1014.5 |
| 20260503081132 | 42 | 350 | 3.0 | 5.0 | 0.00 | 0.00 | 0.00 | 68 | 1014.6 |
| 20260503080628 | 42 | 338 | 5.0 | 6.0 | 0.00 | 0.00 | 0.00 | 67 | 1014.5 |
| 20260503080125 | 42 | 353 | 4.0 | 5.0 | 0.00 | 0.00 | 0.00 | 69 | 1014.6 |
| 20260503072602 | 42 | 339 | 7.0 | 7.0 | 0.00 | 0.00 | 0.00 | 69 | 1014.4 |
| 20260503072059 | 42 | 339 | 7.0 | 8.0 | 0.00 | 0.00 | 0.00 | 69 | 1014.2 |
| 20260503071556 | 42 | 343 | 6.0 | 7.0 | 0.00 | 0.00 | 0.00 | 68 | 1013.9 |
| 20260503071053 | 42 | 348 | 6.0 | 8.0 | 0.00 | 0.00 | 0.00 | 68 | 1014.1 |
| 20260503070549 | 43 | 321 | 5.0 | 6.0 | 0.00 | 0.00 | 0.00 | 67 | 1014.1 |
| 20260503055008 | 42 | 341 | 1.0 | 1.0 | 0.00 | 0.00 | 0.00 | 69 | 1013.9 |
| 20260503054504 | 42 | 322 | 4.0 | 5.0 | 0.00 | 0.00 | 0.00 | 69 | 1013.8 |
| 20260503054002 | 42 | 348 | 5.0 | 5.0 | 0.00 | 0.00 | 0.00 | 69 | 1013.8 |
| 20260503053500 | 42 | 341 | 4.0 | 5.0 | 0.00 | 0.00 | 0.00 | 69 | 1013.8 |
| 20260503052956 | 42 | 352 | 3.0 | 3.0 | 0.00 | 0.00 | 0.00 | 68 | 1013.9 |
| 20260503052454 | 42 | 353 | 3.0 | 3.0 | 0.00 | 0.00 | 0.00 | 67 | 1013.9 |
| 20260503051950 | 43 | 334 | 3.0 | 3.0 | 0.00 | 0.00 | 0.00 | 66 | 1013.7 |
| 20260503051446 | 43 | 339 | 3.0 | 3.0 | 0.00 | 0.00 | 0.00 | 65 | 1013.8 |
| 20260503050943 | 44 | 310 | 5.0 | 5.0 | 0.00 | 0.00 | 0.00 | 65 | 1013.8 |
| 20260503050439 | 44 | 353 | 3.0 | 3.0 | 0.00 | 0.00 | 0.00 | 64 | 1013.8 |
| 20260503045937 | 43 | 338 | 4.0 | 5.0 | 0.00 | 0.00 | 0.00 | 65 | 1013.7 |
| 20260503045434 | 44 | 316 | 5.0 | 6.0 | 0.00 | 0.00 | 0.00 | 65 | 1013.9 |
| 20260503044931 | 44 | 334 | 3.0 | 3.0 | 0.00 | 0.00 | 0.00 | 64 | 1014.1 |
| 20260503044427 | 44 | 337 | 3.0 | 3.0 | 0.00 | 0.00 | 0.00 | 63 | 1013.8 |
| 20260503043925 | 45 | 318 | 5.0 | 6.0 | 0.00 | 0.00 | 0.00 | 62 | 1014.1 |
| 20260503043421 | 45 | 337 | 5.0 | 6.0 | 0.00 | 0.00 | 0.00 | 61 | 1013.9 |
| 20260503042918 | 45 | 344 | 4.0 | 5.0 | 0.00 | 0.00 | 0.00 | 61 | 1013.9 |
| 20260503042415 | 45 | 347 | 3.0 | 3.0 | 0.00 | 0.00 | 0.00 | 62 | 1013.8 |
| 20260503041911 | 45 | 9 | 2.0 | 2.0 | 0.00 | 0.00 | 0.00 | 62 | 1013.8 |
| 20260503041408 | 45 | 315 | 3.0 | 3.0 | 0.00 | 0.00 | 0.00 | 61 | 1013.8 |
| 20260503040905 | 46 | 355 | 4.0 | 6.0 | 0.00 | 0.00 | 0.00 | 60 | 1013.8 |
| 20260503040403 | 46 | 333 | 2.0 | 2.0 | 0.00 | 0.00 | 0.00 | 60 | 1013.9 |
| 20260503035859 | 46 | 339 | 3.0 | 5.0 | 0.00 | 0.00 | 0.00 | 60 | 1013.9 |
| 20260503035356 | 46 | 296 | 5.0 | 7.0 | 0.00 | 0.00 | 0.00 | 59 | 1013.7 |
| 20260503034854 | 46 | 335 | 5.0 | 6.0 | 0.00 | 0.00 | 0.00 | 58 | 1013.8 |
| 20260503034351 | 46 | 359 | 4.0 | 5.0 | 0.00 | 0.00 | 0.00 | 58 | 1013.6 |
| 20260503033848 | 46 | 31 | 1.0 | 2.0 | 0.00 | 0.00 | 0.00 | 58 | 1013.8 |
| 20260503033346 | 47 | 312 | 4.0 | 5.0 | 0.00 | 0.00 | 0.00 | 57 | 1013.4 |
| 20260503032843 | 47 | 340 | 4.0 | 5.0 | 0.00 | 0.00 | 0.00 | 56 | 1013.6 |
| 20260503032342 | 47 | 1 | 6.0 | 7.0 | 0.00 | 0.00 | 0.00 | 56 | 1013.6 |
| 20260503031839 | 47 | 306 | 5.0 | 7.0 | 0.00 | 0.00 | 0.00 | 55 | 1013.4 |
| 20260503031337 | 48 | 349 | 5.0 | 6.0 | 0.00 | 0.00 | 0.00 | 55 | 1013.4 |
| 20260503030833 | 48 | 337 | 8.0 | 9.0 | 0.00 | 0.00 | 0.00 | 54 | 1013.5 |
| 20260503030330 | 48 | 9 | 5.0 | 7.0 | 0.00 | 0.00 | 0.00 | 53 | 1013.4 |
| 20260503025826 | 48 | 343 | 9.0 | 10.0 | 0.00 | 0.00 | 0.00 | 52 | 1013.4 |
| 20260503025324 | 48 | 350 | 8.0 | 10.0 | 0.00 | 0.00 | 0.00 | 52 | 1013.6 |
| 20260503024821 | 48 | 0 | 3.0 | 3.0 | 0.00 | 0.00 | 0.00 | 52 | 1013.2 |
| 20260503024317 | 49 | 345 | 2.0 | 2.0 | 0.00 | 0.00 | 0.00 | 51 | 1013.3 |
| 20260503023814 | 49 | 358 | 3.0 | 3.0 | 0.00 | 0.00 | 0.00 | 51 | 1013.4 |
| 20260503023312 | 49 | 354 | 5.0 | 6.0 | 0.00 | 0.00 | 0.00 | 49 | 1013.2 |
| 20260503022809 | 49 | 16 | 4.0 | 5.0 | 0.00 | 0.00 | 0.00 | 49 | 1013.2 |
| 20260503022308 | 49 | 339 | 3.0 | 3.0 | 0.00 | 0.00 | 0.00 | 50 | 1013.4 |
| 20260503021805 | 50 | 39 | 1.0 | 1.0 | 0.00 | 0.00 | 0.00 | 49 | 1013.4 |
| 20260503021301 | 50 | 346 | 3.0 | 3.0 | 0.00 | 0.00 | 0.00 | 48 | 1013.3 |
| 20260503020759 | 50 | 331 | 2.0 | 2.0 | 0.00 | 0.00 | 0.00 | 47 | 1013.2 |
| 20260503020256 | 50 | 327 | 3.0 | 3.0 | 0.00 | 0.00 | 0.00 | 44 | 1013.1 |
| 20260503015752 | 50 | 291 | 6.0 | 7.0 | 0.00 | 0.00 | 0.00 | 44 | 1013.3 |
| 20260503015249 | 50 | 28 | 3.0 | 3.0 | 0.00 | 0.00 | 0.00 | 47 | 1013.3 |
| 20260503014745 | 50 | 53 | 1.0 | 1.0 | 0.00 | 0.00 | 0.00 | 46 | 1013.5 |
| 20260503014243 | 50 | 358 | 1.0 | 2.0 | 0.00 | 0.00 | 0.00 | 44 | 1013.5 |
| 20260503013740 | 51 | 348 | 2.0 | 2.0 | 0.00 | 0.00 | 0.00 | 45 | 1013.4 |
| 20260503013238 | 51 | 337 | 1.0 | 2.0 | 0.00 | 0.00 | 0.00 | 44 | 1013.3 |
| 20260503012735 | 51 | 323 | 3.0 | 3.0 | 0.00 | 0.00 | 0.00 | 42 | 1013.2 |
| 20260503012232 | 51 | 333 | 3.0 | 3.0 | 0.00 | 0.00 | 0.00 | 43 | 1013.2 |
| 20260503011728 | 51 | 6 | 5.0 | 7.0 | 0.00 | 0.00 | 0.00 | 42 | 1013.1 |
| 20260503011226 | 51 | 3 | 1.0 | 2.0 | 0.00 | 0.00 | 0.00 | 43 | 1013.2 |
| 20260503010722 | 51 | 312 | 3.0 | 3.0 | 0.00 | 0.00 | 0.00 | 42 | 1013.1 |
| 20260503010219 | 51 | 357 | 3.0 | 3.0 | 0.00 | 0.00 | 0.00 | 42 | 1012.8 |
| 20260503005716 | 51 | 358 | 5.0 | 6.0 | 0.00 | 0.00 | 0.00 | 42 | 1012.9 |
| 20260503005213 | 51 | 348 | 7.0 | 9.0 | 0.00 | 0.00 | 0.00 | 42 | 1012.7 |
| 20260503004709 | 51 | 23 | 2.0 | 2.0 | 0.00 | 0.00 | 0.00 | 43 | 1012.8 |
| 20260503004208 | 51 | 334 | 7.0 | 8.0 | 0.00 | 0.00 | 0.00 | 42 | 1012.4 |
| 20260503003705 | 51 | 310 | 5.0 | 6.0 | 0.00 | 0.00 | 0.00 | 42 | 1012.3 |
| 20260503003202 | 51 | 267 | 1.0 | 2.0 | 0.00 | 0.00 | 0.00 | 43 | 1012.5 |
| 20260503002658 | 51 | 89 | 4.0 | 6.0 | 0.00 | 0.00 | 0.00 | 42 | 1012.3 |
| 20260503002155 | 51 | 322 | 5.0 | 6.0 | 0.00 | 0.00 | 0.00 | 42 | 1012.2 |
| 20260503001651 | 51 | 296 | 4.0 | 6.0 | 0.00 | 0.00 | 0.00 | 44 | 1012.1 |
| 20260503001148 | 52 | 340 | 3.0 | 5.0 | 0.00 | 0.00 | 0.00 | 42 | 1012.1 |
| 20260503000646 | 52 | 344 | 3.0 | 5.0 | 0.00 | 0.00 | 0.00 | 44 | 1012.0 |
| 20260503000143 | 52 | 6 | 3.0 | 3.0 | 0.00 | 0.00 | 0.00 | 45 | 1011.8 |
| 20260502235639 | 52 | 351 | 5.0 | 6.0 | 0.00 | 0.00 | 0.00 | 44 | 1011.9 |
| 20260502235138 | 52 | 342 | 6.0 | 7.0 | 0.00 | 0.00 | 0.00 | 45 | 1011.7 |
| 20260502234633 | 52 | 312 | 5.0 | 6.0 | 0.00 | 0.00 | 0.00 | 45 | 1011.7 |
| 20260502234131 | 52 | 353 | 4.0 | 6.0 | 0.00 | 0.00 | 0.00 | 47 | 1011.6 |
| 20260502233627 | 52 | 2 | 3.0 | 3.0 | 0.00 | 0.00 | 0.00 | 46 | 1011.7 |
| 20260502233124 | 52 | 346 | 6.0 | 7.0 | 0.00 | 0.00 | 0.00 | 44 | 1011.5 |
| 20260502232619 | 52 | 13 | 4.0 | 5.0 | 0.00 | 0.00 | 0.00 | 45 | 1011.5 |
| 20260502232117 | 53 | 350 | 1.0 | 1.0 | 0.00 | 0.00 | 0.00 | 45 | 1011.5 |
| 20260502231614 | 53 | 341 | 4.0 | 5.0 | 0.00 | 0.00 | 0.00 | 44 | 1011.3 |
| 20260502231112 | 53 | 130 | 1.0 | 1.0 | 0.00 | 0.00 | 0.00 | 45 | 1011.5 |
| 20260502230610 | 53 | 2 | 6.0 | 7.0 | 0.00 | 0.00 | 0.00 | 45 | 1011.1 |